period_start,C,m1,H,J0,J1,J2,J3,J4,J5,JA,JB,JC,JD,JJ,JK,JN,#
2014-09-09 00:01:04,0.04,0.35,0.00,25.04,28.83,31.16,9.56,40.41,1017.60,2032.00,3334.79,3217.42,3464.56,500.29,494.07,18.50,0000 0000 0000 0000 000000
2014-09-09 00:06:05,0.02,0.35,0.00,25.06,28.86,31.19,9.53,40.50,1017.60,2032.00,3334.05,3217.00,3464.01,500.33,493.93,18.54,0000 0000 0000 0000 000000
2014-09-09 00:11:07,0.05,0.35,0.00,25.11,28.88,31.21,9.49,40.58,1017.60,2032.00,3333.49,3216.40,3463.34,499.84,493.52,18.58,0000 0000 0000 0000 000000
2014-09-09 00:16:08,0.01,0.35,0.00,25.17,28.91,31.24,9.49,40.24,1017.61,2031.99,3332.92,3216.01,3462.97,499.87,493.29,18.62,0000 0000 0000 0000 000000
2014-09-09 00:21:09,0.05,0.36,0.00,25.21,28.94,31.27,9.50,40.44,1017.64,2031.94,3332.08,3215.39,3462.13,500.01,493.54,18.66,0000 0000 0000 0000 000000
2014-09-09 00:26:10,-0.01,0.36,0.00,25.23,28.97,31.31,9.50,40.40,1017.70,2031.68,3331.31,3214.99,3461.66,499.83,493.37,18.70,0000 0000 0000 0000 000000
2014-09-09 00:31:11,0.01,0.36,0.00,25.27,29.00,31.33,9.41,40.26,1017.69,2031.34,3330.82,3214.45,3461.03,499.74,493.18,18.75,0000 0000 0000 0000 000000
2014-09-09 00:36:12,0.02,0.36,0.00,25.29,29.03,31.37,9.54,40.43,1017.82,2031.14,3330.06,3214.00,3460.58,500.02,493.37,18.79,0000 0000 0000 0000 000000
2014-09-09 00:41:13,0.03,0.36,0.00,25.35,29.06,31.40,9.55,40.26,1017.78,2031.03,3329.40,3213.51,3460.01,500.26,493.61,18.83,0000 0000 0000 0000 000000
2014-09-09 00:46:14,0.02,0.36,0.00,25.40,29.09,31.43,9.46,40.47,1017.78,2031.00,3328.91,3212.97,3459.28,499.77,492.90,18.87,0000 0000 0000 0000 000000
2014-09-09 00:51:15,0.05,0.36,0.00,25.42,29.13,31.46,9.51,40.68,1017.77,2030.98,3328.08,3212.21,3458.68,499.70,493.07,18.91,0000 0000 0000 0000 000000
2014-09-09 00:56:16,0.02,0.36,0.00,25.46,29.16,31.50,9.46,40.59,1017.66,2030.95,3327.34,3211.92,3458.01,499.76,492.77,18.96,0000 0000 0000 0000 000000
2014-09-09 01:01:18,0.01,0.36,0.00,25.53,29.20,31.53,9.49,40.67,1017.62,2030.70,3326.78,3211.12,3457.29,499.99,492.93,19.00,0000 0000 0000 0000 000000
2014-09-09 01:06:19,-0.02,0.36,0.00,25.57,29.24,31.57,9.47,40.66,1017.61,2030.33,3326.05,3210.87,3456.92,499.98,492.67,19.04,0000 0000 0000 0000 000000
2014-09-09 01:11:20,0.04,0.36,0.00,25.62,29.28,31.61,9.51,40.70,1017.60,2030.03,3325.34,3210.07,3456.10,500.35,492.74,19.08,0000 0000 0000 0000 000000
2014-09-09 01:16:21,0.04,0.37,0.00,25.65,29.32,31.65,9.49,40.62,1017.61,2030.00,3324.66,3209.54,3455.47,500.17,492.86,19.12,0000 0000 0000 0000 000000
2014-09-09 01:21:22,0.02,0.37,0.00,25.68,29.36,31.68,9.45,40.67,1017.60,2030.00,3323.94,3208.99,3454.94,499.69,492.50,19.17,0000 0000 0000 0000 000000
2014-09-09 01:26:23,0.06,0.37,0.00,25.74,29.40,31.72,9.54,40.50,1017.60,2029.98,3323.07,3208.27,3454.13,500.28,492.77,19.21,0000 0000 0000 0000 000000
2014-09-09 01:31:24,0.02,0.37,0.00,25.77,29.44,31.75,9.46,40.51,1017.59,2029.84,3322.26,3207.76,3453.41,499.55,492.23,19.25,0000 0000 0000 0000 000000
2014-09-09 01:36:25,-0.02,0.37,0.00,25.84,29.48,31.80,9.48,40.63,1017.59,2029.30,3321.38,3207.03,3452.82,499.63,491.99,19.29,0000 0000 0000 0000 000000
2014-09-09 01:41:27,0.02,0.37,0.00,25.88,29.52,31.83,9.53,40.89,1017.59,2029.03,3320.84,3206.39,3452.05,500.06,492.41,19.33,0000 0000 0000 0000 000000
2014-09-09 01:46:28,0.03,0.37,0.00,25.91,29.56,31.88,9.43,40.52,1017.59,2029.00,3319.99,3205.93,3451.27,499.82,492.44,19.38,0000 0000 0000 0000 000000
2014-09-09 01:51:29,0.05,0.37,0.00,25.97,29.60,31.91,9.44,40.80,1017.59,2029.00,3319.20,3205.14,3450.75,499.96,492.38,19.42,0000 0000 0000 0000 000000
2014-09-09 01:56:30,0.04,0.38,0.00,26.01,29.64,31.95,9.42,40.67,1017.59,2028.97,3318.48,3204.65,3449.99,499.60,491.87,19.46,0000 0000 0000 0000 000000
2014-09-09 02:01:31,-0.03,0.38,0.00,26.09,29.69,31.99,9.41,40.62,1017.59,2028.49,3317.75,3203.99,3449.13,499.77,491.82,19.50,0000 0000 0000 0000 000000
2014-09-09 02:06:32,0.03,0.38,0.00,26.14,29.73,32.02,9.45,40.29,1017.59,2028.06,3316.99,3203.23,3448.58,499.95,492.03,19.54,0000 0000 0000 0000 000000
2014-09-09 02:11:33,0.04,0.38,0.00,26.20,29.76,32.07,9.46,40.23,1017.59,2028.00,3316.15,3202.62,3447.81,499.69,491.57,19.58,0000 0000 0000 0000 000000
2014-09-09 02:16:34,0.03,0.38,0.00,26.25,29.81,32.11,9.47,40.17,1017.59,2028.00,3315.48,3202.00,3447.05,500.31,492.04,19.63,0000 0000 0000 0000 000000
2014-09-09 02:21:35,0.05,0.38,0.00,26.31,29.85,32.15,9.49,40.18,1017.59,2027.97,3314.75,3201.37,3446.36,499.85,491.67,19.67,0000 0000 0000 0000 000000
2014-09-09 02:26:36,-0.00,0.38,0.00,26.35,29.89,32.19,9.40,40.24,1017.60,2027.76,3313.99,3200.91,3445.79,500.06,491.68,19.71,0000 0000 0000 0000 000000
2014-09-09 02:31:37,0.00,0.38,0.00,26.39,29.93,32.23,9.45,40.15,1017.60,2027.17,3313.22,3200.11,3445.05,499.86,491.46,19.75,0000 0000 0000 0000 000000
2014-09-09 02:36:38,0.04,0.38,0.00,26.44,29.98,32.27,9.49,40.48,1017.59,2027.02,3312.44,3199.51,3444.30,500.12,491.75,19.79,0000 0000 0000 0000 000000
2014-09-09 02:41:39,0.03,0.38,0.00,26.50,30.02,32.32,9.46,40.52,1017.59,2026.99,3311.59,3198.92,3443.51,499.98,491.19,19.84,0000 0000 0000 0000 000000
2014-09-09 02:46:40,0.04,0.39,0.00,26.56,30.07,32.37,9.44,40.49,1017.59,2026.94,3310.75,3198.12,3442.80,499.94,491.17,19.88,0000 0000 0000 0000 000000
2014-09-09 02:51:41,-0.02,0.39,0.00,26.60,30.11,32.42,9.43,40.41,1017.59,2026.57,3309.96,3197.57,3442.03,500.13,491.34,19.92,0000 0000 0000 0000 000000
2014-09-09 02:56:43,0.01,0.39,0.00,26.68,30.16,32.47,9.40,40.40,1017.59,2026.07,3309.09,3196.95,3441.19,499.59,490.62,19.96,0000 0000 0000 0000 000000
2014-09-09 03:01:44,0.05,0.39,0.00,26.72,30.21,32.52,9.42,40.36,1017.52,2026.00,3308.25,3196.13,3440.52,499.66,490.58,20.00,0000 0000 0000 0000 000000
2014-09-09 03:06:45,0.05,0.39,0.00,26.79,30.26,32.57,9.52,40.23,1017.33,2026.00,3307.40,3195.51,3439.85,499.96,490.78,20.04,0000 0000 0000 0000 000000
2014-09-09 03:11:46,0.04,0.39,0.00,26.85,30.31,32.62,9.44,40.41,1017.47,2025.95,3306.55,3194.85,3438.97,500.02,490.70,20.09,0000 0000 0000 0000 000000
2014-09-09 03:16:48,-0.02,0.39,0.00,26.88,30.36,32.67,9.44,40.38,1017.59,2025.51,3305.89,3194.06,3438.11,500.41,491.09,20.13,0000 0000 0000 0000 000000
2014-09-09 03:21:49,0.02,0.39,0.00,26.93,30.41,32.72,9.46,40.48,1017.59,2025.06,3305.06,3193.47,3437.45,500.21,490.82,20.17,0000 0000 0000 0000 000000
2014-09-09 03:26:50,0.03,0.39,0.00,26.98,30.46,32.77,9.41,40.40,1017.59,2025.00,3304.26,3192.89,3436.83,499.74,490.36,20.21,0000 0000 0000 0000 000000
2014-09-09 03:31:51,0.05,0.40,0.00,27.04,30.51,32.82,9.43,40.24,1017.60,2024.98,3303.57,3192.06,3436.02,500.22,490.72,20.25,0000 0000 0000 0000 000000
2014-09-09 03:36:53,0.01,0.40,0.00,27.10,30.56,32.87,9.44,40.60,1017.59,2024.71,3302.64,3191.35,3435.21,499.93,490.34,20.30,0000 0000 0000 0000 000000
2014-09-09 03:41:54,-0.02,0.40,0.00,27.16,30.61,32.92,9.48,40.60,1017.60,2024.11,3301.97,3190.82,3434.48,499.95,490.30,20.34,0000 0000 0000 0000 000000
2014-09-09 03:46:55,0.04,0.40,0.00,27.21,30.66,32.97,9.50,40.90,1017.60,2024.00,3301.06,3190.03,3433.73,500.22,490.35,20.38,0000 0000 0000 0000 000000
2014-09-09 03:51:56,0.05,0.40,0.00,27.25,30.71,33.02,9.44,40.71,1017.59,2024.00,3300.15,3189.24,3433.01,500.12,490.20,20.42,0000 0000 0000 0000 000000
2014-09-09 03:56:57,0.03,0.40,0.00,27.30,30.77,33.08,9.43,40.52,1017.59,2023.92,3299.46,3188.78,3432.17,500.25,490.15,20.46,0000 0000 0000 0000 000000
2014-09-09 04:01:59,-0.02,0.40,0.00,27.34,30.82,33.13,9.34,40.40,1017.59,2023.48,3298.91,3188.05,3431.64,499.78,489.73,20.51,0000 0000 0000 0000 000000
2014-09-09 04:07:00,0.02,0.40,0.00,27.38,30.87,33.17,9.41,40.61,1017.59,2023.08,3298.06,3187.45,3430.96,500.03,489.91,20.55,0000 0000 0000 0000 000000
2014-09-09 04:12:01,0.04,0.40,0.00,27.45,30.92,33.22,9.44,40.58,1017.59,2023.00,3297.18,3186.75,3430.08,500.51,490.30,20.59,0000 0000 0000 0000 000000
2014-09-09 04:17:02,0.04,0.41,0.00,27.48,30.97,33.27,9.47,40.44,1017.59,2022.92,3296.27,3186.01,3429.19,499.83,489.66,20.63,0000 0000 0000 0000 000000
2014-09-09 04:22:03,-0.00,0.41,0.00,27.51,31.02,33.32,9.40,40.38,1017.59,2022.54,3295.67,3185.35,3428.61,500.27,490.04,20.67,0000 0000 0000 0000 000000
2014-09-09 04:27:04,-0.01,0.41,0.00,27.55,31.08,33.37,9.47,40.39,1017.59,2022.09,3294.89,3184.83,3427.95,500.04,489.72,20.72,0000 0000 0000 0000 000000
2014-09-09 04:32:05,0.05,0.41,0.00,27.58,31.12,33.42,9.40,40.38,1017.59,2022.00,3294.05,3184.06,3427.12,499.70,489.17,20.76,0000 0000 0000 0000 000000
2014-09-09 04:37:06,0.05,0.41,0.00,27.60,31.17,33.47,9.45,40.35,1017.59,2021.99,3293.27,3183.45,3426.44,500.14,489.79,20.80,0000 0000 0000 0000 000000
2014-09-09 04:42:08,0.02,0.41,0.00,27.64,31.22,33.51,9.37,40.50,1017.57,2021.86,3292.42,3182.83,3425.71,499.82,489.27,20.84,0000 0000 0000 0000 000000
2014-09-09 04:47:09,-0.03,0.41,0.00,27.69,31.27,33.56,9.36,40.44,1017.56,2021.34,3291.75,3182.07,3425.00,499.80,489.28,20.88,0000 0000 0000 0000 000000
2014-09-09 04:52:10,0.03,0.41,0.00,27.74,31.31,33.60,9.41,40.24,1017.57,2021.03,3290.95,3181.55,3424.32,500.02,489.33,20.92,0000 0000 0000 0000 000000
2014-09-09 04:57:11,0.04,0.41,0.00,27.77,31.36,33.64,9.38,40.29,1017.59,2021.00,3290.09,3180.95,3423.61,499.88,489.26,20.97,0000 0000 0000 0000 000000
2014-09-09 05:02:13,0.05,0.42,0.00,27.79,31.40,33.69,9.37,40.65,1017.59,2020.98,3289.33,3180.12,3422.91,499.65,488.96,21.01,0000 0000 0000 0000 000000
2014-09-09 05:07:14,0.01,0.42,0.00,27.82,31.44,33.72,9.38,40.50,1017.59,2020.79,3288.74,3179.63,3422.08,500.12,489.59,21.05,0000 0000 0000 0000 000000
2014-09-09 05:12:15,-0.01,0.42,0.00,27.86,31.49,33.77,9.38,40.59,1017.60,2020.29,3287.97,3179.01,3421.57,499.88,488.92,21.09,0000 0000 0000 0000 000000
2014-09-09 05:17:16,0.03,0.42,0.00,27.92,31.53,33.81,9.47,40.62,1017.60,2020.03,3287.16,3178.34,3420.89,500.01,489.04,21.13,0000 0000 0000 0000 000000
2014-09-09 05:22:18,0.04,0.42,0.00,27.95,31.57,33.85,9.48,40.63,1017.59,2020.00,3286.53,3177.85,3420.10,500.04,489.13,21.18,0000 0000 0000 0000 000000
2014-09-09 05:27:19,0.04,0.42,0.00,27.97,31.62,33.89,9.34,40.44,1017.60,2019.97,3285.76,3177.06,3419.49,499.78,488.77,21.22,0000 0000 0000 0000 000000
2014-09-09 05:32:20,0.02,0.42,0.00,28.00,31.66,33.93,9.44,40.54,1017.59,2019.75,3284.91,3176.40,3418.65,500.09,488.99,21.26,0000 0000 0000 0000 000000
2014-09-09 05:37:21,-0.03,0.42,0.00,28.05,31.71,33.97,9.49,40.67,1017.59,2019.16,3284.10,3175.87,3417.98,500.13,488.97,21.30,0000 0000 0000 0000 000000
2014-09-09 05:42:22,0.05,0.42,0.00,28.07,31.75,34.01,9.35,40.28,1017.59,2019.00,3283.36,3175.08,3417.16,499.60,488.40,21.34,0000 0000 0000 0000 000000
2014-09-09 05:47:23,0.04,0.42,0.00,28.11,31.79,34.05,9.44,40.25,1017.59,2019.00,3282.69,3174.59,3416.60,500.21,488.82,21.39,0000 0000 0000 0000 000000
2014-09-09 05:52:23,0.02,0.43,0.00,28.15,31.83,34.09,9.49,40.45,1017.59,2018.98,3282.01,3174.00,3415.98,500.27,488.89,21.43,0000 0000 0000 0000 000000
2014-09-09 05:57:24,0.04,0.43,0.00,28.19,31.87,34.13,9.42,40.42,1017.59,2018.82,3281.25,3173.32,3415.20,500.32,488.85,21.47,0000 0000 0000 0000 000000
2014-09-09 06:02:26,-0.03,0.43,0.00,28.21,31.91,34.17,9.33,40.46,1017.57,2018.26,3280.46,3172.86,3414.61,500.01,488.56,21.51,0000 0000 0000 0000 000000
2014-09-09 06:07:27,0.02,0.43,0.00,28.25,31.95,34.21,9.35,40.28,1017.59,2018.03,3279.80,3172.06,3413.96,499.61,488.19,21.55,0000 0000 0000 0000 000000
2014-09-09 06:12:28,0.05,0.43,0.00,28.27,31.99,34.25,9.47,40.38,1017.59,2018.00,3279.01,3171.52,3413.15,500.33,488.80,21.60,0000 0000 0000 0000 000000
2014-09-09 06:17:29,0.03,0.43,0.00,28.32,32.03,34.29,9.35,40.41,1017.59,2017.99,3278.22,3170.97,3412.56,499.62,488.03,21.64,0000 0000 0000 0000 000000
2014-09-09 06:22:30,0.03,0.43,0.00,28.35,32.07,34.31,9.39,40.39,1017.59,2017.86,3277.53,3170.18,3411.92,500.09,488.25,21.68,0000 0000 0000 0000 000000
2014-09-09 06:27:31,-0.03,0.43,0.00,28.38,32.11,34.36,9.43,40.56,1017.59,2017.42,3276.85,3169.77,3411.12,499.98,488.41,21.72,0000 0000 0000 0000 000000
2014-09-09 06:32:32,0.02,0.43,0.00,28.41,32.15,34.38,9.41,40.48,1017.58,2017.04,3276.04,3169.04,3410.57,500.04,488.16,21.76,0000 0000 0000 0000 000000
2014-09-09 06:37:32,0.04,0.43,0.00,28.44,32.19,34.42,9.39,40.56,1017.59,2017.01,3275.33,3168.49,3409.92,500.04,488.49,21.80,0000 0000 0000 0000 000000
2014-09-09 06:42:33,0.03,0.44,0.00,28.48,32.23,34.46,9.40,40.41,1017.59,2017.00,3274.59,3167.91,3409.10,499.95,488.12,21.85,0000 0000 0000 0000 000000
2014-09-09 06:47:35,0.04,0.44,0.00,28.53,32.26,34.50,9.39,40.48,1017.59,2016.96,3273.89,3167.13,3408.40,499.98,487.93,21.89,0000 0000 0000 0000 000000
2014-09-09 06:52:36,0.01,0.44,0.00,28.56,32.31,34.53,9.40,40.38,1017.59,2016.70,3273.07,3166.62,3407.85,499.62,487.53,21.93,0000 0000 0000 0000 000000
2014-09-09 06:57:37,-0.01,0.44,0.00,28.60,32.34,34.57,9.40,40.15,1017.59,2016.14,3272.27,3165.99,3407.06,500.10,488.05,21.97,0000 0000 0000 0000 000000
2014-09-09 07:02:38,0.05,0.44,0.00,28.65,32.38,34.61,9.39,40.26,1017.59,2016.02,3271.70,3165.36,3406.51,500.20,488.04,22.01,0000 0000 0000 0000 000000
2014-09-09 07:07:39,0.02,0.44,0.00,28.69,32.42,34.64,9.47,40.42,1017.59,2016.00,3270.88,3164.90,3405.83,500.30,488.02,22.06,0000 0000 0000 0000 000000
2014-09-09 07:12:40,0.05,0.44,0.00,28.72,32.46,34.68,9.40,40.46,1017.59,2016.00,3270.06,3164.08,3405.06,499.53,487.21,22.10,0000 0000 0000 0000 000000
2014-09-09 07:17:41,0.05,0.44,0.00,28.78,32.50,34.71,9.43,40.52,1017.59,2015.98,3269.31,3163.47,3404.32,500.31,487.83,22.14,0000 0000 0000 0000 000000
2014-09-09 07:22:42,0.01,0.45,0.00,28.83,32.54,34.74,9.38,40.63,1017.58,2015.84,3268.39,3162.93,3403.68,500.11,487.44,22.18,0000 0000 0000 0000 000000
2014-09-09 07:27:43,0.01,0.45,0.00,28.87,32.58,34.79,9.43,40.51,1017.56,2015.33,3267.57,3161.86,3402.61,500.11,487.57,22.22,0000 0000 0000 0000 000000
2014-09-09 07:32:44,0.10,0.45,0.00,28.89,32.61,34.82,9.34,40.55,1017.58,2015.03,3265.78,3160.11,3400.61,499.87,487.62,22.26,0000 0000 0000 0000 000000
2014-09-09 07:37:46,0.05,0.45,0.00,28.94,32.65,34.86,9.40,40.62,1017.58,2015.00,3264.86,3159.25,3399.81,500.09,487.53,22.31,0000 0000 0000 0000 000000
2014-09-09 07:42:47,0.15,0.45,0.00,28.98,32.69,34.90,9.34,40.49,1017.58,2014.97,3263.30,3157.83,3397.98,499.76,487.23,22.35,0000 0000 0000 0000 000000
2014-09-09 07:47:49,0.03,0.46,0.00,29.02,32.72,34.94,9.36,40.42,1017.57,2014.79,3261.90,3156.05,3396.06,499.62,487.16,22.39,0000 0000 0000 0000 000000
2014-09-09 07:52:50,0.01,0.46,0.00,29.06,32.76,34.98,9.25,40.23,1017.52,2014.37,3261.11,3155.52,3395.44,499.96,487.22,22.43,0000 0000 0000 0000 000000
2014-09-09 07:57:51,0.01,0.46,0.00,29.10,32.79,35.01,9.43,40.33,1017.55,2014.05,3260.42,3154.90,3394.75,500.16,487.36,22.47,0000 0000 0000 0000 000000
2014-09-09 08:02:52,0.04,0.46,0.00,29.14,32.83,35.05,9.35,39.96,1017.43,2014.00,3259.65,3154.10,3394.02,499.99,486.99,22.52,0000 0000 0000 0000 000000
2014-09-09 08:07:53,0.03,0.46,0.00,29.20,32.86,35.08,9.35,40.11,1017.26,2014.00,3259.00,3153.78,3393.35,500.19,487.01,22.56,0000 0000 0000 0000 000000
2014-09-09 08:12:54,0.04,0.47,0.00,29.29,32.90,35.13,9.44,40.24,1017.32,2013.98,3258.20,3153.05,3392.88,500.30,486.93,22.60,0000 0000 0000 0000 000000
2014-09-09 08:17:55,0.05,0.47,0.00,29.37,32.93,35.16,9.35,40.38,1017.23,2013.93,3257.36,3152.46,3392.09,499.83,486.48,22.64,0000 0000 0000 0000 000000
2014-09-09 08:22:57,-0.01,0.47,0.00,29.45,32.97,35.19,9.42,40.15,1017.51,2013.51,3256.42,3151.83,3391.23,500.15,486.61,22.68,0000 0000 0000 0000 000000
2014-09-09 08:27:58,0.01,0.47,0.00,29.51,33.01,35.22,9.30,40.23,1017.58,2013.11,3255.64,3151.05,3390.74,499.78,486.31,22.73,0000 0000 0000 0000 000000
2014-09-09 08:32:59,0.04,0.47,0.00,29.58,33.05,35.27,9.34,40.40,1017.59,2013.01,3254.90,3150.37,3390.01,500.10,486.53,22.77,0000 0000 0000 0000 000000
2014-09-09 08:38:00,0.13,0.48,0.00,29.64,33.09,35.32,9.39,40.51,1017.59,2013.00,3253.08,3148.69,3388.17,500.21,486.39,22.81,0000 0000 0000 0000 000000
2014-09-09 08:43:01,0.08,0.48,0.00,29.67,33.14,35.39,9.36,40.38,1017.56,2012.98,3251.60,3147.40,3386.66,500.18,486.39,22.85,0000 0000 0000 0000 000000
2014-09-09 08:48:02,0.03,0.48,0.00,29.68,33.18,35.44,9.44,40.52,1017.55,2012.80,3250.61,3146.73,3385.79,500.52,486.40,22.89,0000 0000 0000 0000 000000
2014-09-09 08:53:03,0.01,0.48,0.00,29.71,33.22,35.50,9.26,40.37,1017.59,2012.25,3249.47,3145.68,3384.70,499.46,485.65,22.94,0000 0000 0000 0000 000000
2014-09-09 08:58:04,0.01,0.48,0.00,29.73,33.26,35.55,9.39,40.38,1017.59,2012.01,3248.75,3145.01,3383.99,500.24,486.30,22.98,0000 0000 0000 0000 000000
2014-09-09 09:03:05,0.06,0.49,0.00,29.72,33.31,35.60,9.34,40.47,1017.59,2012.00,3247.83,3144.23,3383.13,499.73,486.01,23.02,0000 0000 0000 0000 000000
2014-09-09 09:08:07,0.13,0.49,0.00,29.71,33.35,35.65,9.38,40.33,1017.59,2011.99,3246.01,3142.95,3381.67,499.93,486.09,23.06,0000 0000 0000 0000 000000
2014-09-09 09:13:08,0.06,0.49,0.00,29.73,33.38,35.69,9.35,40.41,1017.59,2011.80,3244.11,3141.40,3379.88,499.83,486.00,23.10,0000 0000 0000 0000 000000
2014-09-09 09:18:09,0.04,0.50,0.00,29.74,33.41,35.73,9.34,40.52,1017.59,2011.27,3242.57,3140.02,3378.50,499.79,485.95,23.14,0000 0000 0000 0000 000000
2014-09-09 09:23:10,0.04,0.50,0.00,29.73,33.45,35.76,9.36,40.45,1017.59,2011.06,3241.38,3139.04,3377.42,500.04,486.19,23.19,0000 0000 0000 0000 000000
2014-09-09 09:28:11,0.04,0.50,0.00,29.76,33.48,35.78,9.40,40.57,1017.59,2011.00,3240.62,3138.35,3376.83,499.79,485.87,23.23,0000 0000 0000 0000 000000
2014-09-09 09:33:13,0.02,0.50,0.00,29.77,33.51,35.82,9.40,40.57,1017.59,2011.00,3239.91,3137.92,3376.04,500.27,486.37,23.27,0000 0000 0000 0000 000000
2014-09-09 09:38:14,0.05,0.50,0.00,29.77,33.54,35.85,9.31,40.48,1017.59,2010.96,3239.11,3137.13,3375.53,499.60,485.70,23.31,0000 0000 0000 0000 000000
2014-09-09 09:43:15,0.02,0.50,0.00,29.79,33.56,35.88,9.31,40.37,1017.59,2010.87,3238.43,3136.85,3374.96,499.65,485.75,23.35,0000 0000 0000 0000 000000
2014-09-09 09:48:17,0.03,0.50,0.00,29.79,33.59,35.90,9.40,40.48,1017.59,2010.38,3237.25,3135.72,3373.85,500.62,486.64,23.40,0000 0000 0000 0000 000000
2014-09-09 09:53:18,0.05,0.51,0.00,29.79,33.61,35.93,9.42,40.43,1017.59,2010.07,3235.69,3134.87,3372.51,500.37,486.29,23.44,0000 0000 0000 0000 000000
2014-09-09 09:58:19,0.03,0.51,0.00,29.83,33.64,35.95,9.39,40.53,1017.59,2010.01,3235.00,3134.11,3371.99,500.14,486.16,23.48,0000 0000 0000 0000 000000
2014-09-09 10:03:21,0.04,0.51,0.00,29.87,33.66,35.97,9.35,40.42,1017.59,2010.00,3234.32,3133.82,3371.31,499.51,485.42,23.52,0000 0000 0000 0000 000000
2014-09-09 10:08:22,0.04,0.51,0.00,29.88,33.68,35.98,9.39,40.32,1017.59,2010.00,3233.68,3133.07,3370.85,499.86,485.79,23.56,0000 0000 0000 0000 000000
2014-09-09 10:13:23,0.03,0.51,0.00,29.85,33.70,35.99,9.41,40.37,1017.59,2010.00,3232.99,3132.72,3370.06,500.66,486.59,23.61,0000 0000 0000 0000 000000
2014-09-09 10:18:24,0.04,0.52,0.00,29.82,33.72,36.01,9.36,40.42,1017.59,2009.97,3232.25,3132.03,3369.66,499.76,485.91,23.65,0000 0000 0000 0000 000000
2014-09-09 10:23:25,0.02,0.52,0.00,29.82,33.74,36.03,9.41,40.41,1017.59,2009.93,3231.79,3131.82,3369.03,499.97,485.84,23.69,0000 0000 0000 0000 000000
2014-09-09 10:28:26,-0.01,0.52,0.00,29.81,33.75,36.04,9.35,40.38,1017.59,2009.45,3231.01,3131.07,3368.34,500.05,486.01,23.73,0000 0000 0000 0000 000000
2014-09-09 10:33:28,0.02,0.52,0.00,29.81,33.77,36.06,9.40,40.45,1017.59,2009.40,3230.45,3130.89,3368.00,500.22,486.23,23.77,0000 0000 0000 0000 000000
2014-09-09 10:38:28,0.02,0.52,0.00,29.78,33.79,36.07,9.38,39.96,1017.59,2009.20,3229.90,3130.21,3367.61,500.08,486.06,23.82,0000 0000 0000 0000 000000
2014-09-09 10:43:29,0.01,0.52,0.00,29.77,33.80,36.08,9.35,40.20,1017.58,2009.05,3229.12,3129.94,3367.01,500.06,486.03,23.86,0000 0000 0000 0000 000000
2014-09-09 10:48:30,0.05,0.52,0.00,29.76,33.81,36.09,9.36,40.34,1017.56,2009.02,3228.46,3129.23,3366.41,500.13,486.18,23.90,0000 0000 0000 0000 000000
2014-09-09 10:53:31,0.01,0.52,0.00,29.75,33.82,36.10,9.30,40.34,1017.58,2009.00,3227.95,3129.00,3366.00,499.90,486.01,23.94,0000 0000 0000 0000 000000
2014-09-09 10:58:32,0.04,0.52,0.00,29.76,33.82,36.12,9.33,40.42,1017.57,2009.00,3227.15,3128.71,3365.60,499.86,485.75,23.98,0000 0000 0000 0000 000000
2014-09-09 11:03:34,0.03,0.52,0.00,29.75,33.84,36.11,9.38,40.38,1017.52,2009.00,3226.62,3128.03,3365.01,500.06,486.13,24.02,0000 0000 0000 0000 000000
2014-09-09 11:08:35,0.01,0.53,0.00,29.74,33.85,36.14,9.38,40.23,1017.59,2009.00,3226.00,3127.92,3364.58,500.00,486.18,24.07,0000 0000 0000 0000 000000
2014-09-09 11:13:36,0.05,0.53,0.00,29.71,33.85,36.14,9.39,40.41,1017.59,2009.00,3225.28,3127.18,3364.03,500.10,486.34,24.11,0000 0000 0000 0000 000000
2014-09-09 11:18:38,0.02,0.53,0.00,29.70,33.85,36.15,9.33,40.42,1017.57,2009.00,3224.77,3126.96,3363.61,499.88,485.95,24.15,0000 0000 0000 0000 000000
2014-09-09 11:23:39,0.03,0.53,0.00,29.68,33.85,36.15,9.33,40.22,1017.51,2009.00,3224.04,3126.51,3363.02,500.06,486.22,24.19,0000 0000 0000 0000 000000
2014-09-09 11:28:40,0.01,0.53,0.00,29.66,33.86,36.16,9.34,40.35,1017.43,2008.99,3223.79,3126.03,3362.96,500.09,486.26,24.23,0000 0000 0000 0000 000000
2014-09-09 11:33:41,0.02,0.53,0.00,29.65,33.87,36.15,9.45,40.45,1017.33,2008.99,3223.06,3125.99,3362.27,500.40,486.51,24.28,0000 0000 0000 0000 000000
2014-09-09 11:38:42,0.03,0.53,0.00,29.65,33.87,36.15,9.35,40.37,1017.29,2008.99,3222.69,3125.54,3362.00,499.72,486.16,24.32,0000 0000 0000 0000 000000
2014-09-09 11:43:43,0.02,0.53,0.00,29.63,33.87,36.15,9.44,40.43,1017.16,2008.98,3222.03,3125.02,3361.64,500.30,486.43,24.36,0000 0000 0000 0000 000000
2014-09-09 11:48:44,0.02,0.54,0.00,29.60,33.87,36.15,9.38,40.37,1017.13,2008.98,3221.50,3124.92,3361.07,499.68,485.80,24.40,0000 0000 0000 0000 000000
2014-09-09 11:53:46,0.02,0.54,0.00,29.58,33.87,36.14,9.32,40.45,1017.12,2008.97,3221.00,3124.46,3360.97,499.89,485.97,24.44,0000 0000 0000 0000 000000
2014-09-09 11:58:47,0.02,0.54,0.00,29.57,33.87,36.13,9.43,40.47,1017.11,2008.97,3220.65,3124.03,3360.38,500.29,486.42,24.49,0000 0000 0000 0000 000000
2014-09-09 12:03:48,0.01,0.54,0.00,29.56,33.87,36.11,9.33,40.42,1017.11,2008.97,3220.03,3123.94,3360.01,500.09,486.16,24.53,0000 0000 0000 0000 000000
2014-09-09 12:08:49,0.02,0.54,0.00,29.57,33.85,36.11,9.43,40.34,1017.11,2008.91,3219.75,3123.40,3359.81,500.20,486.40,24.57,0000 0000 0000 0000 000000
2014-09-09 12:13:50,0.03,0.54,0.00,29.55,33.85,36.10,9.34,40.27,1017.10,2008.90,3219.07,3123.01,3359.12,499.84,486.01,24.61,0000 0000 0000 0000 000000
2014-09-09 12:18:51,0.01,0.54,0.00,29.50,33.85,36.09,9.32,40.48,1017.10,2008.94,3218.70,3122.99,3358.99,499.83,486.18,24.65,0000 0000 0000 0000 000000
2014-09-09 12:23:52,0.02,0.54,0.00,29.47,33.85,36.09,9.35,40.52,1017.07,2008.96,3218.06,3122.76,3358.82,500.22,486.40,24.69,0000 0000 0000 0000 000000
2014-09-09 12:28:53,0.05,0.55,0.00,29.47,33.83,36.09,9.41,40.61,1017.07,2008.95,3217.38,3122.09,3358.07,500.61,486.77,24.74,0000 0000 0000 0000 000000
2014-09-09 12:33:54,0.01,0.55,0.00,29.46,33.82,36.06,9.39,40.39,1016.89,2008.96,3216.99,3121.99,3357.98,499.84,486.02,24.78,0000 0000 0000 0000 000000
2014-09-09 12:38:56,0.02,0.55,0.00,29.46,33.82,36.06,9.40,40.41,1016.77,2008.97,3216.54,3121.90,3357.65,500.25,486.40,24.82,0000 0000 0000 0000 000000
2014-09-09 12:43:57,0.03,0.55,0.00,29.44,33.81,36.05,9.41,40.46,1016.68,2008.99,3216.00,3121.36,3357.05,500.26,486.35,24.86,0000 0000 0000 0000 000000
2014-09-09 12:48:59,0.01,0.55,0.00,29.40,33.80,36.04,9.37,40.14,1016.66,2008.99,3215.48,3121.02,3357.00,499.73,485.89,24.90,0000 0000 0000 0000 000000
2014-09-09 12:53:59,0.01,0.55,0.00,29.37,33.80,36.03,9.34,40.37,1016.63,2008.99,3215.02,3121.00,3356.83,500.00,486.15,24.95,0000 0000 0000 0000 000000
2014-09-09 12:59:01,0.03,0.55,0.00,29.35,33.79,36.03,9.30,40.41,1016.63,2008.99,3214.70,3120.88,3356.12,499.77,486.13,24.99,0000 0000 0000 0000 000000